EW6607 Motilla Del Palancar current weather conditions

sailwx.info

Wind from 135 at 0 knots gusting 1

Air temperature 13.9° C
Dewpoint 10.1° C

Last reported at 2018-Oct-23 19:10 UTC.
Time now 2018-Oct-23 20:08 UTC

Location: N 39°34' W 001°55'.
View on Google Maps.

See reports from other nearby stations

  
Tides and Currents Weather Stations Pressure Air Temp Water Temp Dewpoint Dewpoint Depression Visibility Wind Speed Wind Dir Waves Ship Positions
date/time (UTC)wind fromknots sea level pressurealtimeterstation pressurevisibilityair tempwater tempwave heightnotes
2018-Oct-23 19:10 135 0 gusting 1 13.9
2018-Oct-23 19:00 135 13.9
2018-Oct-23 18:50 135 15.0
2018-Oct-23 18:40 135 15.6
2018-Oct-23 18:30 139 16.1
2018-Oct-23 18:20 16.1
2018-Oct-23 18:10 181 16.7
2018-Oct-23 18:00 181 16.7
2018-Oct-23 17:50 181 17.2
2018-Oct-23 17:40 181 17.2
2018-Oct-23 17:30 082 17.8
2018-Oct-23 17:20 046 18.3
2018-Oct-23 17:10 045 0 gusting 2 18.3
2018-Oct-23 17:00 046 0 gusting 2 18.9
2018-Oct-23 16:50 045 0 gusting 4 18.9
2018-Oct-23 16:40 046 3 gusting 5 19.4
2018-Oct-23 16:30 046 1 gusting 3 20.0
2018-Oct-23 16:20 045 0 gusting 6 20.0
2018-Oct-23 16:10 046 20.6
2018-Oct-23 16:00 046 2 gusting 6 20.6
2018-Oct-23 15:50 045 1 gusting 4 20.6
2018-Oct-23 15:40 045 0 gusting 3 20.6
2018-Oct-23 15:30 045 2 gusting 4 20.6
2018-Oct-23 15:20 045 0 gusting 6 20.6
2018-Oct-23 15:10 045 21.1
2018-Oct-23 15:00 045 20.6
2018-Oct-23 14:50 045 1 gusting 5 21.1
2018-Oct-23 14:40 045 21.1
2018-Oct-23 14:30 045 5 gusting 6 21.7
2018-Oct-23 14:20 046 0 gusting 3 21.7
2018-Oct-23 14:10 044 0 gusting 6 20.6
2018-Oct-23 14:00 046 3 gusting 6 21.1
2018-Oct-23 13:50 045 2 gusting 5 20.6
2018-Oct-23 13:40 045 3 gusting 6 20.6
2018-Oct-23 13:30 046 20.0
2018-Oct-23 13:20 046 20.0
2018-Oct-23 13:10 045 0 gusting 6 20.0
2018-Oct-23 13:00 046 0 gusting 6 20.0
2018-Oct-23 12:50 046 1 gusting 7 20.0
2018-Oct-23 12:40 045 1 gusting 3 20.0
2018-Oct-23 12:30 046 1 gusting 7 19.4
2018-Oct-23 12:20 045 2 gusting 7 18.9
2018-Oct-23 12:10 045 5 gusting 6 18.9
2018-Oct-23 12:00 046 5 gusting 6 18.9
2018-Oct-23 11:50 046 3 gusting 6 18.9
2018-Oct-23 11:40 045 4 gusting 8 18.3
2018-Oct-23 11:30 046 6 gusting 9 18.3
2018-Oct-23 11:20 046 3 gusting 11 18.3
2018-Oct-23 11:10 046 1 gusting 8 18.3
2018-Oct-23 11:00 046 1 gusting 6 18.3
2018-Oct-23 10:50 046 2 gusting 8 17.8
2018-Oct-23 10:40 046 5 gusting 6 17.8
2018-Oct-23 10:30 045 1 gusting 7 18.3
2018-Oct-23 10:20 113 2 gusting 6 18.3
2018-Oct-23 10:10 143 3 gusting 6 18.3
2018-Oct-23 10:00 127 3 gusting 9 17.8
2018-Oct-23 09:50 138 1 gusting 7 17.8
2018-Oct-23 09:40 131 1 gusting 6 17.8
2018-Oct-23 09:30 130 3 gusting 8 16.7
2018-Oct-23 09:20 039 5 gusting 8 17.2
2018-Oct-23 09:10 089 2 gusting 8 16.7
2018-Oct-23 09:00 138 0 gusting 5 16.7
2018-Oct-23 08:50 001 0 gusting 9 16.1
2018-Oct-23 08:40 047 4 gusting 6 15.0
2018-Oct-23 08:30 047 2 gusting 7 14.4
2018-Oct-23 08:20 038 4 gusting 9 13.9
2018-Oct-23 08:10 028 4 gusting 7 13.3
2018-Oct-23 08:00 029 1 gusting 7 12.8
2018-Oct-23 07:50 007 4 gusting 6 12.8
2018-Oct-23 07:40 024 0 gusting 5 12.2
2018-Oct-23 07:30 038 3 gusting 5 12.2
2018-Oct-23 07:20 026 1 gusting 5 11.7
2018-Oct-23 07:10 359 2 gusting 5 11.7
2018-Oct-23 07:00 018 0 gusting 6 11.7
2018-Oct-23 06:50 026 5 gusting 7 11.7
2018-Oct-23 06:40 013 4 gusting 6 11.7
2018-Oct-23 06:30 035 3 gusting 8 11.7
2018-Oct-23 06:20 043 3 gusting 8 11.7
2018-Oct-23 06:10 021 1 gusting 6 12.2
2018-Oct-23 06:00 026 3 gusting 5 12.2
2018-Oct-23 05:50 037 0 gusting 3 12.2
2018-Oct-23 05:40 047 12.2
2018-Oct-23 05:30 021 12.8
2018-Oct-23 05:20 014 12.8
2018-Oct-23 05:10 034 12.8
2018-Oct-23 05:00 055 2 gusting 4 13.3
2018-Oct-23 04:50 047 1 gusting 7 13.3
2018-Oct-23 04:40 028 3 gusting 5 13.3
2018-Oct-23 04:30 064 2 gusting 6 13.3
2018-Oct-23 04:20 090 0 gusting 3 13.3
2018-Oct-23 04:10 059 0 gusting 3 13.3
2018-Oct-23 04:00 083 13.3
2018-Oct-23 03:50 026 2 gusting 6 13.3
2018-Oct-23 03:40 167 1 gusting 8 13.3
2018-Oct-23 03:30 181 2 gusting 9 13.3
2018-Oct-23 03:20 132 6 gusting 8 13.3
2018-Oct-23 03:10 050 2 gusting 6 13.3
2018-Oct-23 03:00 030 0 gusting 5 13.3
2018-Oct-23 02:50 031 3 gusting 5 13.3
2018-Oct-23 02:40 042 3 gusting 4 13.3
2018-Oct-23 02:30 033 1 gusting 3 13.3
2018-Oct-23 02:20 035 0 gusting 2 13.3
2018-Oct-23 02:10 037 13.3
2018-Oct-23 02:00 066 13.3
2018-Oct-23 01:50 047 13.3
2018-Oct-23 01:40 158 0 gusting 5 13.3
2018-Oct-23 01:30 162 1 gusting 5 13.3
2018-Oct-23 01:20 156 0 gusting 5 13.3
2018-Oct-23 01:10 156 0 gusting 5 13.3
2018-Oct-23 01:00 088 1 gusting 3 12.8
2018-Oct-23 00:50 061 12.8
2018-Oct-23 00:40 014 13.3
2018-Oct-23 00:30 096 13.3
2018-Oct-23 00:20 050 1 gusting 5 13.3
2018-Oct-23 00:10 046 13.3
2018-Oct-23 00:00 039 13.3
2018-Oct-22 23:50 032 4 gusting 8 13.3
2018-Oct-22 23:40 028 3 gusting 6 13.3
2018-Oct-22 23:30 038 3 gusting 6 13.3
2018-Oct-22 23:20 016 5 gusting 6 13.3
2018-Oct-22 23:10 045 1 gusting 2 13.3
2018-Oct-22 23:00 045 13.3
2018-Oct-22 22:50 035 13.3
2018-Oct-22 22:40 041 13.3
2018-Oct-22 22:30 010 2 gusting 3 13.3
2018-Oct-22 22:20 001 13.3
2018-Oct-22 22:10 035 13.3
2018-Oct-22 22:00 040 1 gusting 3 13.3
2018-Oct-22 21:50 045 13.3
2018-Oct-22 21:40 051 13.3
2018-Oct-22 21:30 035 3 gusting 7 13.9
2018-Oct-22 21:20 117 2 gusting 8 13.9
2018-Oct-22 21:10 155 3 gusting 9 14.4
2018-Oct-22 21:00 016 1 gusting 6 13.9
2018-Oct-22 20:50 047 1 gusting 6 14.4
2018-Oct-22 20:40 057 1 gusting 6 14.4
2018-Oct-22 20:30 073 1 gusting 8 14.4
2018-Oct-22 20:10 078 0 gusting 8 15.0
2018-Oct-22 20:00 048 1 gusting 3 14.4
2018-Oct-22 19:50 161 1 gusting 3 14.4
2018-Oct-22 19:40 020 0 gusting 3 15.0
2018-Oct-22 19:30 033 15.0
2018-Oct-22 19:20 030 15.0
2018-Oct-22 19:10 041 1 gusting 6 15.6
2018-Oct-22 19:00 115 0 gusting 6 15.6
2018-Oct-22 18:50 137 3 gusting 9 15.6
2018-Oct-22 18:40 127 6 gusting 9 16.1
2018-Oct-22 18:30 155 6 gusting 9 16.1
2018-Oct-22 18:20 102 3 gusting 9 16.7
2018-Oct-22 18:10 105 5 gusting 9 16.7
2018-Oct-22 18:00 090 2 gusting 9 16.7
2018-Oct-22 17:50 123 7 gusting 9 17.2
2018-Oct-22 17:40 118 3 gusting 9 17.2
2018-Oct-22 17:30 108 3 gusting 6 17.8
2018-Oct-22 17:20 096 4 gusting 10 18.3
2018-Oct-22 17:10 093 6 gusting 11 18.3
2018-Oct-22 17:00 113 3 gusting 8 18.9
2018-Oct-22 16:50 131 6 gusting 11 19.4
2018-Oct-22 16:40 123 6 gusting 10 19.4
2018-Oct-22 16:30 100 3 gusting 8 20.0
2018-Oct-22 16:20 073 2 gusting 7 20.6
2018-Oct-22 16:10 139 4 gusting 7 20.6
2018-Oct-22 16:00 135 2 gusting 7 20.6
2018-Oct-22 15:50 109 4 gusting 7 20.6
2018-Oct-22 15:40 140 6 gusting 8 20.6
2018-Oct-22 15:30 122 6 gusting 9 21.1
2018-Oct-22 15:20 315 0 gusting 9 21.1
2018-Oct-22 15:10 135 3 gusting 9 21.1
2018-Oct-22 15:00 116 3 gusting 10 21.1
2018-Oct-22 14:50 112 1 gusting 7 21.1
2018-Oct-22 14:40 114 5 gusting 9 21.1
2018-Oct-22 14:30 121 3 gusting 9 21.1
2018-Oct-22 14:20 098 1 gusting 10 21.1
2018-Oct-22 14:10 112 6 gusting 10 20.6
2018-Oct-22 14:00 101 5 gusting 10 20.6
2018-Oct-22 13:50 137 1 gusting 9 20.6
2018-Oct-22 13:40 093 6 gusting 13 21.1
2018-Oct-22 13:30 110 4 gusting 10 21.1
2018-Oct-22 13:20 126 3 gusting 11 21.1
2018-Oct-22 13:10 057 6 gusting 12 21.1
2018-Oct-22 13:00 046 3 gusting 9 21.1
2018-Oct-22 12:50 043 4 gusting 10 21.7
2018-Oct-22 12:40 046 1 gusting 7 21.7
2018-Oct-22 12:30 046 1 gusting 9 21.7
2018-Oct-22 12:20 045 1 gusting 3 21.7
2018-Oct-22 12:10 045 2 gusting 6 21.7
2018-Oct-22 12:00 046 3 gusting 6 21.7
2018-Oct-22 11:50 046 1 gusting 4 21.7
2018-Oct-22 11:40 045 2 gusting 5 22.2
2018-Oct-22 11:30 045 0 gusting 5 21.7
2018-Oct-22 11:20 042 3 gusting 4 21.1
2018-Oct-22 11:10 046 21.1
2018-Oct-22 11:00 045 1 gusting 4 21.1
2018-Oct-22 10:50 045 21.1
2018-Oct-22 10:40 045 1 gusting 3 21.7
2018-Oct-22 10:20 046 21.1
2018-Oct-22 10:10 090 20.0
2018-Oct-22 10:00 080 19.4
2018-Oct-22 09:50 029 1 gusting 4 19.4
2018-Oct-22 09:40 001 0 gusting 3 19.4
2018-Oct-22 09:30 001 1 gusting 6 19.4
2018-Oct-22 09:20 001 18.3
2018-Oct-22 09:10 001 18.3
2018-Oct-22 09:00 356 1 gusting 3 17.8
2018-Oct-22 08:50 358 0 gusting 3 16.7
2018-Oct-22 08:40 001 16.1
2018-Oct-22 08:30 001 15.0
2018-Oct-22 08:20 342 1 gusting 4 14.4
2018-Oct-22 08:10 314 0 gusting 1 13.9
2018-Oct-22 08:00 314 13.3
2018-Oct-22 07:50 314 12.8
2018-Oct-22 07:40 314 12.2
2018-Oct-22 07:30 314 10.6
2018-Oct-22 07:20 314 10.6
2018-Oct-22 07:10 314 9.4
2018-Oct-22 07:00 314 9.4
2018-Oct-22 06:50 314 0 gusting 1 9.4
2018-Oct-22 06:40 314 9.4
2018-Oct-22 06:30 313 9.4
2018-Oct-22 06:20 314 9.4
2018-Oct-22 06:10 314 9.4
2018-Oct-22 06:00 314 9.4
2018-Oct-22 05:50 314 10.0
2018-Oct-22 05:40 10.0
2018-Oct-22 05:30 314 10.0
2018-Oct-22 05:20 314 10.0
2018-Oct-22 05:10 314 10.0
2018-Oct-22 05:00 10.0
2018-Oct-22 04:50 10.0
2018-Oct-22 04:40 10.0
2018-Oct-22 04:30 314 10.0
2018-Oct-22 04:20 314 10.0
2018-Oct-22 04:10 311 10.0
2018-Oct-22 04:00 313 10.6
2018-Oct-22 03:50 314 10.6
2018-Oct-22 03:40 314 10.6
2018-Oct-22 03:30 314 10.6
2018-Oct-22 03:20 314 10.6
2018-Oct-22 03:10 314 10.6
2018-Oct-22 03:00 351 10.6
2018-Oct-22 02:50 001 10.6
2018-Oct-22 02:40 001 10.6
2018-Oct-22 02:30 001 10.6
2018-Oct-22 02:20 001 10.6
2018-Oct-22 02:10 001 10.6
2018-Oct-22 02:00 001 10.6
2018-Oct-22 01:50 001 10.6
2018-Oct-22 01:40 357 10.6
2018-Oct-22 01:30 314 10.6
2018-Oct-22 01:20 314 1 gusting 1 10.6
2018-Oct-22 01:10 314 0 gusting 1 10.6
2018-Oct-22 01:00 314 0 gusting 1 10.6
2018-Oct-22 00:50 314 10.6
2018-Oct-22 00:40 314 10.6
2018-Oct-22 00:30 314 10.6
2018-Oct-22 00:20 314 10.6
2018-Oct-22 00:10 313 0 gusting 1 11.1
2018-Oct-22 00:00 324 0 gusting 1 11.1
2018-Oct-21 23:50 012 11.1
2018-Oct-21 23:40 039 0 gusting 2 11.1
2018-Oct-21 23:30 353 0 gusting 3 11.7
2018-Oct-21 23:20 314 11.7
2018-Oct-21 23:10 314 11.7
2018-Oct-21 23:00 314 11.7
2018-Oct-21 22:50 314 11.7
2018-Oct-21 22:40 314 11.7
2018-Oct-21 22:30 314 0 gusting 1 11.7
2018-Oct-21 22:20 314 12.2
2018-Oct-21 22:10 314 12.2
2018-Oct-21 21:30 314 12.8
2018-Oct-21 21:20 309 1 gusting 3 12.8
2018-Oct-21 21:10 270 0 gusting 2 13.3
2018-Oct-21 21:00 270 13.3
2018-Oct-21 20:50 270 13.3
2018-Oct-21 20:40 314 13.9
2018-Oct-21 20:30 314 13.9
2018-Oct-21 20:20 314 13.9
2018-Oct-21 20:10 314 13.9
2018-Oct-21 20:00 314 1 gusting 2 13.9